Theta_e
318 317 316 315 313 311 312 310 307 314 306 304 296 300 299 299 302 305 303 303 302 300 300 299 300 301 302 305 305 303 303 302 299 300 303 303 303 300 300 298 295 301 302 299
317 316 316 315 313 311 311 309 310 317 306 299 303 301 300 302 303 303 302 301 303 302 300 299 300 302 304 305 305 304 304 299 297 298 302 304 303 301 298 299 302 300 300 300
316 316 316 315 314 312 314 312 308 313 307 304 302 300 301 300 306 305 304 304 305 302 300 300 301 301 304 307 308 310 309 299 300 297 300 303 301 301 300 300 299 299 301 301
316 316 316 316 314 312 315 312 307 308 305 306 306 304 303 301 303 307 307 305 304 303 299 299 300 301 303 305 308 305 307 301 301 302 302 301 300 299 300 300 300 299 301 303
316 317 317 316 314 311 318 312 311 312 309 306 304 303 305 304 305 305 303 303 303 304 302 304 300 302 303 304 305 304 305 301 303 300 302 301 299 301 300 299 299 302 304 303
316 317 317 316 312 312 316 315 316 312 304 305 305 306 307 307 308 307 306 304 303 301 302 305 304 304 304 306 306 302 303 302 301 297 299 299 296 300 300 301 302 304 301 306
317 318 317 316 313 313 313 314 315 312 306 308 306 307 308 308 307 303 306 305 304 305 309 310 310 308 306 304 302 305 302 301 301 297 299 291 300 306 304 303 303 305 306 307
317 318 318 317 315 312 313 314 316 313 307 308 308 309 308 310 310 306 306 307 309 309 308 305 304 303 305 304 300 301 305 302 296 296 295 297 300 303 303 302 301 307 307 308
317 317 318 317 315 312 314 315 318 316 310 308 309 309 310 308 306 307 308 312 311 309 306 304 297 296 300 299 299 301 301 303 299 294 292 290 300 307 309 308 299 309 310 309
315 315 316 317 317 313 313 317 318 317 313 312 312 311 310 313 309 306 308 310 312 309 304 300 299 299 302 297 298 297 298 299 296 295 294 295 301 307 309 296 300 311 312 312
313 314 314 316 317 316 315 317 320 318 313 314 313 315 313 313 312 307 311 309 311 308 304 302 301 302 302 301 300 299 299 298 296 295 294 291 306 305 301 308 309 314 313 313
311 312 313 314 316 316 315 316 318 319 316 315 316 319 320 319 318 315 311 308 309 310 306 304 303 302 301 299 297 300 299 301 300 300 300 303 308 307 310 310 312 313 315 314
310 311 312 313 314 314 314 315 315 317 315 316 315 315 319 319 320 322 311 313 312 310 307 306 304 302 302 298 298 301 302 301 303 302 305 307 310 313 313 313 313 315 316 314
310 310 311 312 313 313 314 315 316 316 314 310 312 320 319 320 317 315 314 313 309 308 308 304 303 303 301 300 301 302 304 304 304 302 305 308 311 313 315 314 314 314 314 313
309 310 310 311 312 312 312 313 317 317 313 308 311 316 317 317 316 312 312 312 311 309 308 308 306 304 302 301 302 302 305 306 303 302 311 311 311 312 316 314 313 314 313 310
309 309 310 311 311 311 315 316 317 319 317 310 307 316 317 316 315 314 313 312 310 310 310 306 305 305 306 303 302 306 309 309 309 310 310 312 312 314 314 315 315 314 313 311
309 309 309 310 310 312 315 313 316 313 317 313 310 310 314 313 314 313 314 312 310 312 308 308 307 307 307 304 301 309 309 311 311 311 312 310 312 312 315 314 315 313 313 311
309 310 310 310 310 310 314 318 312 313 315 315 308 308 310 313 312 311 310 312 312 309 307 307 307 307 307 303 309 307 311 313 313 313 313 312 314 315 315 315 314 312 312 311
309 310 311 313 314 314 317 315 313 316 314 311 310 306 304 312 310 311 310 310 307 308 308 306 306 305 302 308 311 310 312 312 312 314 313 312 312 312 314 314 313 313 313 312
310 312 314 311 315 318 317 315 312 312 312 312 308 311 308 310 309 308 309 308 307 303 306 308 304 304 311 312 313 313 313 314 314 311 311 312 311 313 313 314 315 315 315 313
313 312 313 316 315 315 312 308 308 306 304 309 311 311 310 311 307 308 309 306 306 301 304 304 304 304 309 311 313 314 314 314 314 315 314 314 313 312 313 314 315 315 316 314
312 314 313 314 311 308 305 303 305 304 302 307 309 311 312 311 313 310 306 304 305 298 307 305 301 308 310 313 312 314 316 315 314 314 313 313 314 314 314 315 315 316 317 317
314 313 310 308 305 294 298 297 301 302 307 308 309 307 311 311 311 308 306 302 302 307 304 302 306 311 312 314 315 315 315 316 315 314 315 314 312 313 315 315 316 316 316 317
309 306 291 301 299 301 302 303 305 309 309 309 310 308 307 308 309 308 302 305 306 300 298 299 309 313 315 315 315 316 314 314 313 313 313 313 314 314 316 315 316 314 314 314
307 307 296 300 306 306 308 309 308 311 312 311 310 311 309 306 304 306 304 301 298 300 301 308 312 314 315 315 316 316 315 314 313 313 313 313 312 312 313 314 314 314 313 314
307 306 302 306 306 307 309 309 309 312 313 312 313 308 306 304 302 302 301 298 297 303 309 313 316 316 316 317 317 317 316 315 314 313 314 313 313 313 313 314 314 315 315 315
304 302 306 305 306 306 309 311 312 315 313 310 309 304 302 306 303 301 305 302 308 311 313 317 318 318 318 318 318 317 316 314 313 314 314 314 314 313 313 314 317 316 317 317
Wind_Speed
16 19 20 22 23 28 4 3 2 4 3 2 1 2 2 1 3 3 3 2 6 4 2 3 5 10 1 1 7 7 2 5 5 6 3 2 2 3 3 4 6 1 3 4
16 19 19 20 21 19 5 3 2 1 3 2 2 1 2 3 4 7 4 6 6 4 5 3 2 4 2 4 4 7 9 3 7 4 4 3 2 4 3 4 2 7 5 5
17 20 20 20 21 18 1 2 1 2 4 1 2 2 2 3 3 7 6 5 5 4 4 2 5 4 2 4 4 7 4 5 2 6 3 3 5 4 3 3 4 6 4 12
15 19 19 19 21 16 2 3 3 2 2 3 3 1 3 4 5 5 3 5 15 7 5 4 6 3 5 4 2 3 3 6 4 7 5 5 6 4 2 4 1 6 7 16
15 16 16 18 22 17 3 3 2 1 1 3 2 1 1 4 5 5 4 9 2 13 8 7 13 11 3 3 4 4 3 5 3 5 6 4 5 5 3 3 4 4 12 12
14 14 15 16 18 13 3 2 1 3 3 2 2 3 5 6 6 7 10 8 6 8 4 6 11 7 10 7 5 4 4 7 2 4 4 2 5 4 4 2 2 7 9 7
12 13 13 13 12 9 1 2 2 2 1 2 2 5 6 10 8 4 9 4 4 6 11 15 13 16 18 16 13 5 7 5 2 4 2 5 5 5 6 4 2 3 9 15
12 13 12 12 11 8 0 1 1 2 1 3 2 7 5 9 5 3 5 9 4 5 5 6 5 5 6 9 10 10 6 5 5 3 2 3 1 5 5 2 3 4 12 13
10 12 12 13 11 9 1 1 1 1 3 3 4 4 4 5 6 4 3 3 3 2 4 5 6 2 2 3 3 5 9 8 2 4 4 5 2 8 5 3 3 12 10 12
10 12 12 13 12 10 2 1 0 0 2 1 2 4 4 3 2 3 2 8 8 7 5 5 3 3 2 3 5 2 3 3 2 3 1 2 3 6 6 4 3 16 14 12
9 10 11 12 13 11 5 2 1 3 2 5 3 2 3 3 3 4 5 2 2 3 6 2 2 1 2 2 1 1 3 4 2 2 2 3 6 7 5 2 2 12 13 12
9 9 9 10 11 11 6 1 1 2 3 4 3 8 10 6 4 3 3 3 2 2 5 2 3 2 2 3 4 1 3 2 1 4 1 2 3 2 2 2 3 5 11 10
7 8 8 9 9 10 7 2 3 1 2 4 3 0 1 2 6 5 2 1 2 3 1 3 2 3 2 4 3 3 2 3 1 4 4 2 3 2 2 4 2 4 7 10
7 7 8 9 8 8 7 2 2 1 1 3 1 4 2 4 3 5 3 2 3 5 2 2 2 1 3 2 2 1 1 6 5 1 2 4 8 8 5 6 4 7 7 8
7 7 7 8 9 8 4 2 1 1 3 3 4 8 1 4 3 4 3 4 4 2 2 1 2 2 4 1 2 3 5 5 3 1 5 1 3 2 7 9 9 8 9 8
7 7 7 7 8 9 3 2 2 0 2 2 3 3 3 3 4 6 5 3 3 2 1 3 2 1 1 2 2 1 5 6 2 1 0 3 1 2 2 8 8 9 10 8
7 7 7 7 7 3 2 1 3 3 2 2 3 2 1 3 2 2 1 3 3 2 2 2 1 2 2 2 4 4 6 5 5 4 5 3 3 1 2 3 6 9 7 6
7 7 8 7 6 7 3 1 3 6 0 2 2 3 2 4 1 1 3 1 1 4 2 2 1 3 1 4 6 3 4 6 6 8 4 3 4 3 3 3 6 8 8 6
6 7 7 3 2 1 1 6 7 0 2 1 2 2 1 1 2 1 2 2 2 1 1 1 3 2 4 5 7 7 8 7 6 7 7 5 2 2 3 4 6 7 7 7
5 3 3 2 1 4 3 2 2 2 1 1 3 1 2 2 1 2 2 1 1 2 2 1 3 4 5 6 5 4 5 9 10 9 6 6 5 5 5 7 6 7 6 6
2 3 1 2 4 2 0 2 2 1 3 4 2 5 2 3 3 3 1 2 1 2 3 3 1 3 2 1 4 5 5 10 9 3 2 5 4 5 5 5 5 6 7 8
1 1 1 2 1 2 2 2 1 4 3 3 3 3 3 1 2 2 1 2 2 2 1 2 2 2 2 2 4 6 5 7 8 6 5 4 5 4 4 4 5 5 4 5
2 1 2 1 2 2 5 5 3 3 3 4 4 4 2 2 2 3 2 3 1 2 2 2 3 0 1 5 5 5 5 6 5 5 6 5 5 4 5 5 3 2 4 4
2 3 0 4 4 5 5 3 2 1 2 3 3 3 1 1 2 1 2 2 2 2 3 3 1 1 0 6 4 5 7 5 4 5 6 6 5 5 4 4 3 4 5 4
2 3 4 6 3 3 3 3 3 3 2 3 3 3 2 1 3 0 2 3 3 4 3 1 2 4 5 6 5 5 4 4 4 4 6 5 4 4 4 4 4 4 5 6
2 3 3 3 2 2 2 3 5 2 3 3 1 3 2 1 3 3 4 3 4 2 2 1 2 3 5 4 5 4 3 3 4 5 5 4 4 3 3 4 5 6 7 8
3 3 3 4 3 4 2 1 1 0 3 2 2 4 4 3 3 3 4 4 1 1 2 4 4 6 7 6 5 4 3 4 5 6 5 4 3 3 4 6 6 6 7 9
Wind_Direction
342 341 338 340 346 341 31 330 77 14 288 60 28 135 194 227 249 191 270 268 234 244 223 192 198 184 276 133 164 165 130 97 94 103 68 70 61 92 192 245 178 27 311 123
346 341 340 342 350 0 326 29 322 30 290 73 29 317 268 244 241 241 215 244 234 192 159 219 205 167 85 167 176 162 177 90 125 145 167 164 106 95 101 115 164 183 217 132
348 345 343 344 347 354 330 331 33 21 60 39 1 355 279 272 261 256 232 243 172 172 177 201 172 184 113 123 97 61 100 92 225 213 94 100 152 122 126 241 221 155 210 149
346 348 342 344 346 349 300 13 62 8 24 78 4 321 312 295 295 237 217 223 231 194 175 155 182 173 145 82 77 67 56 96 95 74 83 90 83 49 335 229 253 245 152 174
346 346 348 349 348 344 70 15 345 33 8 301 238 235 244 282 313 249 275 240 290 202 212 196 183 157 175 161 80 72 24 109 117 84 63 115 96 56 82 67 140 70 152 147
343 348 354 354 358 352 36 43 153 282 48 336 243 12 321 288 318 241 251 268 217 192 249 91 81 79 83 93 108 105 73 134 142 132 32 156 218 3 304 154 204 161 175 159
343 348 351 359 8 24 319 39 280 311 18 335 1 333 313 299 316 283 344 161 139 108 146 115 98 81 76 62 49 49 114 92 49 100 126 224 26 320 240 112 100 180 117 145
348 348 358 359 0 11 312 297 301 8 338 317 299 328 339 305 300 360 19 40 105 203 228 80 45 9 53 39 45 36 68 116 97 156 181 342 140 184 185 245 125 162 141 144
341 346 356 355 354 6 324 286 298 13 302 35 313 315 352 349 341 13 25 353 345 75 44 65 85 30 37 76 50 43 64 66 88 163 175 203 141 180 219 213 172 180 173 164
335 337 350 350 349 357 337 300 359 5 303 276 301 15 341 327 327 280 336 338 13 29 14 66 80 110 359 154 158 145 77 44 124 152 153 243 233 145 162 224 84 177 187 181
320 329 341 345 346 349 349 321 10 342 296 283 246 294 326 334 7 3 356 253 46 68 63 75 90 100 89 103 89 228 189 162 153 151 179 213 155 130 208 60 121 184 188 183
312 324 336 341 343 343 346 259 27 320 232 301 295 276 275 264 314 314 9 345 296 66 96 120 128 138 175 170 174 170 201 271 191 231 124 18 190 49 88 197 156 183 191 180
311 315 326 339 339 342 354 311 330 263 294 264 279 24 12 176 217 261 309 340 41 79 4 125 100 140 148 182 177 132 159 193 160 212 159 179 198 199 233 197 223 185 191 171
299 307 324 329 327 336 345 310 357 294 331 297 1 342 325 335 304 198 206 150 116 88 41 85 93 132 208 189 80 214 75 164 140 183 251 280 243 229 207 189 177 166 164 172
285 301 316 317 318 325 305 245 271 326 323 315 303 308 47 343 30 76 102 123 98 78 103 95 109 121 183 112 217 176 189 154 208 272 176 217 95 8 206 197 195 182 172 169
279 294 302 304 316 325 244 205 164 59 328 292 292 3 296 357 67 86 77 81 89 106 94 98 127 79 275 178 208 167 189 196 201 103 351 197 9 358 208 215 193 183 190 187
276 286 287 296 315 303 267 360 49 136 298 266 291 287 75 319 29 75 62 46 70 25 113 106 102 121 222 192 198 174 197 201 187 183 156 157 208 73 114 182 184 180 194 193
284 286 286 290 290 270 273 125 203 188 256 270 284 279 267 2 106 143 2 68 58 36 61 145 191 153 235 234 222 182 171 163 174 184 202 91 106 130 131 147 164 186 200 200
298 296 290 233 191 222 52 101 139 169 290 270 211 272 211 3 83 62 127 2 170 57 235 155 238 167 221 223 201 189 185 184 168 156 171 161 195 134 154 191 199 219 215 220
287 261 211 178 141 320 139 217 211 176 179 227 248 160 244 242 179 106 162 17 84 228 85 217 233 246 257 243 214 165 186 181 154 145 176 195 196 183 197 219 225 225 225 221
201 194 177 21 319 184 94 233 236 159 226 189 232 215 248 158 211 129 331 122 118 236 114 271 226 259 249 313 213 207 181 180 191 185 142 177 163 182 193 210 212 211 218 231
58 71 115 250 121 75 219 239 234 221 240 190 204 175 205 161 272 152 186 147 195 232 93 249 242 247 261 186 148 159 175 182 193 208 207 202 200 173 168 183 186 204 221 242
176 181 114 74 142 117 203 193 199 225 197 195 184 164 166 152 212 95 151 174 189 153 220 252 251 43 234 177 168 168 159 161 177 201 210 195 179 176 185 189 176 197 240 251
192 157 251 219 187 232 202 208 211 232 222 174 176 121 158 249 155 90 200 85 203 216 229 238 267 309 312 165 166 165 169 188 177 162 165 172 175 171 183 205 227 237 258 277
188 189 216 220 248 262 252 255 265 212 225 162 146 116 186 120 106 341 119 179 226 229 227 239 331 326 174 173 179 179 167 167 171 171 178 174 177 201 208 213 219 244 252 244
222 233 247 212 252 246 222 230 256 218 181 162 190 135 119 131 122 180 201 211 222 217 210 180 326 187 188 190 184 181 147 182 174 177 166 167 171 180 197 204 228 238 242 251
218 230 234 260 280 261 280 292 324 28 196 190 160 158 174 122 187 202 196 219 241 225 258 271 244 206 189 183 180 186 186 167 165 160 155 159 148 183 230 248 246 240 247 255